Baker City, OR

12:04 PM PST on January 23, 2017 (GMT -0800)
Baker City Municipal

Weather History for KBKE - April, 2013

Change the Weather History Date:

Tuesday, April 30, 2013

  Actual Average Record
Temperature  
Mean Temperature 34 °F 47 °F  
Max Temperature 48 °F 62 °F 82 °F (1981)
Min Temperature 19 °F 32 °F 19 °F (1972)
Degree Days  
Heating Degree Days 31 18  
Month to date heating degree days 685 646  
Since 1 July heating degree days 6906 7013  
Cooling Degree Days 0 0  
Month to date cooling degree days 0 0  
Year to date cooling degree days 0 0  
Moisture  
Dew Point 18 °F    
Average Humidity 49    
Maximum Humidity 69    
Minimum Humidity 28    
Precipitation  
Precipitation 0.00 in 0.04 in 0.22 in (1987)
Month to date precipitation 0.35 0.85  
Year to date precipitation 1.93 3.05  
Sea Level Pressure  
Sea Level Pressure 30.18 in    
Wind  
Wind Speed 13 mph (NW)    
Max Wind Speed 26 mph    
Max Gust Speed 32 mph    
Visibility 10 miles    
Events      
T = Trace of Precipitation, MM = Missing Value Source: NWS Daily Summary

Daily Weather History Graph

Daily Weather History Graph

Search for Another Location

Airport or City:

Trip Planner

Search our weather history database for the weather conditions in past years. The results will help you decide how hot, cold, wet, or windy it might be!

Date:

Astronomy

Apr. 30, 2013 Rise Set
Actual Time 5:41 AM PDT 7:55 PM PDT
Civil Twilight 5:09 AM PDT 8:27 PM PDT
Nautical Twilight 4:29 AM PDT 9:07 PM PDT
Astronomical Twilight 3:45 AM PDT 9:52 PM PDT
Moon 12:25 AM PDT (4/30) 10:13 AM PDT (4/30)
Length of Visible Light 15h 18m
Length of Day
14h 13m
Waning Gibbous, 69% of the Moon is Illuminated
Apr 30
Waning Gibbous
May 2
Last Quarter
May 9
New
May 17
First Quarter
May 24
Full

Hourly Weather History & Observations

Time (PDT) Temp. Windchill Dew Point Humidity Pressure Visibility Wind Dir Wind Speed Gust Speed Precip Events Conditions
12:53 AM 32.0 °F 24.8 °F 19.9 °F 61% 30.01 in 10.0 mi NNW 8.1 mph - N/A   Clear
1:53 AM 32.0 °F - 19.0 °F 59% 30.02 in 10.0 mi Calm Calm - N/A   Clear
2:53 AM 32.0 °F 25.6 °F 19.0 °F 59% 30.01 in 10.0 mi WNW 6.9 mph 17.3 mph N/A   Clear
3:53 AM 30.9 °F 20.2 °F 19.0 °F 61% 30.04 in 10.0 mi NNW 15.0 mph 19.6 mph N/A   Clear
4:53 AM 32.0 °F 21.6 °F 18.0 °F 56% 30.05 in 10.0 mi NW 15.0 mph - N/A   Clear
5:53 AM 26.1 °F 17.6 °F 18.0 °F 71% 30.09 in 10.0 mi NNE 8.1 mph - N/A   Clear
6:53 AM 30.9 °F 24.3 °F 21.0 °F 67% 30.10 in 10.0 mi North 6.9 mph - N/A   Clear
7:53 AM 35.1 °F 24.5 °F 19.0 °F 52% 30.12 in 10.0 mi NNW 18.4 mph - N/A   Clear
8:53 AM 35.1 °F 25.2 °F 18.0 °F 50% 30.14 in 10.0 mi NW 16.1 mph 21.9 mph N/A   Overcast
9:53 AM 39.9 °F 33.4 °F 19.9 °F 45% 30.14 in 10.0 mi NW 10.4 mph - N/A   Overcast
10:53 AM 41.0 °F 34.3 °F 19.0 °F 41% 30.15 in 10.0 mi NW 11.5 mph 20.7 mph N/A   Mostly Cloudy
11:53 AM 42.1 °F 33.9 °F 19.0 °F 40% 30.16 in 10.0 mi NW 17.3 mph 24.2 mph N/A   Overcast
12:53 PM 43.0 °F 34.2 °F 18.0 °F 37% 30.17 in 10.0 mi NW 20.7 mph 27.6 mph N/A   Mostly Cloudy
1:53 PM 44.1 °F 35.2 °F 19.0 °F 37% 30.18 in 10.0 mi NW 23.0 mph 28.8 mph N/A   Partly Cloudy
2:53 PM 45.0 °F 37.9 °F 19.0 °F 36% 30.19 in 10.0 mi NW 16.1 mph 29.9 mph N/A   Mostly Cloudy
3:53 PM 43.0 °F 34.0 °F 19.9 °F 40% 30.21 in 10.0 mi NNW 21.9 mph 26.5 mph N/A   Mostly Cloudy
4:53 PM 46.0 °F 38.3 °F 16.0 °F 30% 30.21 in 10.0 mi WNW 20.7 mph 31.1 mph N/A   Scattered Clouds
5:53 PM 43.0 °F 34.2 °F 12.0 °F 28% 30.25 in 10.0 mi NW 20.7 mph 27.6 mph N/A   Mostly Cloudy
6:53 PM 42.1 °F 33.6 °F 12.9 °F 31% 30.26 in 10.0 mi NW 18.4 mph - N/A   Clear
7:53 PM 37.0 °F 28.5 °F 16.0 °F 42% 30.30 in 10.0 mi NW 13.8 mph - N/A   Clear
8:53 PM 32.0 °F 24.8 °F 18.0 °F 56% 30.33 in 10.0 mi NNW 8.1 mph - N/A   Clear
9:53 PM 28.9 °F 20.4 °F 18.0 °F 64% 30.36 in 10.0 mi NW 9.2 mph - N/A   Clear
10:53 PM 28.0 °F 21.7 °F 18.0 °F 66% 30.38 in 10.0 mi WNW 5.8 mph - N/A   Clear
11:53 PM 28.0 °F 21.7 °F 18.0 °F 66% 30.40 in 10.0 mi SSW 5.8 mph - N/A   Clear